Time,TemperatureF,DewpointF,PressureIn,WindDirection,WindDirectionDegrees,WindSpeedMPH,WindSpeedGustMPH,Humidity,HourlyPrecipIn,Conditions,Clouds,dailyrainin,SolarRadiationWatts/m^2,SoftwareType,DateUTC
2013-08-31 00:22:00,56.0,44.0,-100.00,SE,125,4.0,11.0,65,0.00,,,0.00,0.000000,,2013-08-31 06:22:00,
2013-08-31 00:32:00,56.0,44.0,-100.00,SE,125,4.0,11.0,65,0.00,,,0.00,0.000000,,2013-08-31 06:32:00,
2013-08-31 00:42:00,56.0,44.0,-100.00,SE,125,4.0,11.0,65,0.00,,,0.00,0.000000,,2013-08-31 06:42:00,
2013-08-31 00:52:00,56.0,44.0,-100.00,SE,125,4.0,11.0,65,0.00,,,0.00,0.000000,,2013-08-31 06:52:00,
2013-08-31 01:22:00,55.0,45.0,-100.00,SE,135,5.0,7.0,70,0.00,,,0.00,0.000000,,2013-08-31 07:22:00,
2013-08-31 01:32:00,55.0,45.0,-100.00,SE,135,5.0,7.0,70,0.00,,,0.00,0.000000,,2013-08-31 07:32:00,
2013-08-31 01:42:00,55.0,45.0,-100.00,SE,135,5.0,7.0,70,0.00,,,0.00,0.000000,,2013-08-31 07:42:00,
2013-08-31 01:52:00,55.0,45.0,-100.00,SE,135,5.0,7.0,70,0.00,,,0.00,0.000000,,2013-08-31 07:52:00,
2013-08-31 02:22:00,57.0,42.0,-100.00,SE,128,5.0,7.0,58,0.00,,,0.00,1.000000,,2013-08-31 08:22:00,
2013-08-31 02:32:00,57.0,42.0,-100.00,SE,128,5.0,7.0,58,0.00,,,0.00,1.000000,,2013-08-31 08:32:00,
2013-08-31 02:42:00,57.0,42.0,-100.00,SE,128,5.0,7.0,58,0.00,,,0.00,1.000000,,2013-08-31 08:42:00,
2013-08-31 02:52:00,57.0,42.0,-100.00,SE,128,5.0,7.0,58,0.00,,,0.00,1.000000,,2013-08-31 08:52:00,
2013-08-31 03:23:00,56.0,42.0,-100.00,North,7,3.0,5.0,60,0.00,,,0.00,0.000000,,2013-08-31 09:23:00,
2013-08-31 03:33:00,56.0,42.0,-100.00,North,7,3.0,5.0,60,0.00,,,0.00,0.000000,,2013-08-31 09:33:00,
2013-08-31 03:43:00,56.0,42.0,-100.00,North,7,3.0,5.0,60,0.00,,,0.00,0.000000,,2013-08-31 09:43:00,
2013-08-31 03:53:00,56.0,42.0,-100.00,North,7,3.0,5.0,60,0.00,,,0.00,0.000000,,2013-08-31 09:53:00,
2013-08-31 04:23:00,57.0,42.0,-100.00,NE,41,3.0,6.0,58,0.00,,,-99.99,0.000000,,2013-08-31 10:23:00,
2013-08-31 04:33:00,57.0,42.0,-100.00,NE,41,3.0,6.0,58,0.00,,,-99.99,0.000000,,2013-08-31 10:33:00,
2013-08-31 04:43:00,57.0,42.0,-100.00,NE,41,3.0,6.0,58,0.00,,,-99.99,0.000000,,2013-08-31 10:43:00,
2013-08-31 04:53:00,57.0,42.0,-100.00,NE,41,3.0,6.0,58,0.00,,,-99.99,0.000000,,2013-08-31 10:53:00,
2013-08-31 05:21:00,57.0,42.0,-100.00,North,8,6.0,9.0,57,0.00,,,0.00,0.000000,,2013-08-31 11:21:00,
2013-08-31 05:33:00,57.0,42.0,-100.00,North,8,6.0,9.0,57,0.00,,,0.00,0.000000,,2013-08-31 11:33:00,
2013-08-31 05:42:00,57.0,42.0,-100.00,North,8,6.0,9.0,57,0.00,,,0.00,0.000000,,2013-08-31 11:42:00,
2013-08-31 05:52:00,57.0,42.0,-100.00,North,8,6.0,9.0,57,0.00,,,0.00,0.000000,,2013-08-31 11:52:00,
2013-08-31 06:22:00,57.0,43.0,-100.00,North,10,7.0,10.0,60,0.00,,,0.00,0.000000,,2013-08-31 12:22:00,
2013-08-31 06:31:00,57.0,43.0,-100.00,North,10,7.0,10.0,60,0.00,,,0.00,0.000000,,2013-08-31 12:31:00,
2013-08-31 06:42:00,57.0,43.0,-100.00,North,10,7.0,10.0,60,0.00,,,0.00,0.000000,,2013-08-31 12:42:00,
2013-08-31 06:52:00,57.0,43.0,-100.00,North,10,7.0,10.0,60,0.00,,,0.00,0.000000,,2013-08-31 12:52:00,
2013-08-31 07:22:00,58.0,44.0,-100.00,North,6,6.0,11.0,60,0.00,,,0.00,4.000000,,2013-08-31 13:22:00,
2013-08-31 07:32:00,58.0,44.0,-100.00,North,6,6.0,11.0,60,0.00,,,0.00,4.000000,,2013-08-31 13:32:00,
2013-08-31 07:42:00,58.0,44.0,-100.00,North,6,6.0,11.0,60,0.00,,,0.00,4.000000,,2013-08-31 13:42:00,
2013-08-31 07:52:00,58.0,44.0,-100.00,North,6,6.0,11.0,60,0.00,,,0.00,4.000000,,2013-08-31 13:52:00,
2013-08-31 08:22:00,59.0,44.0,-100.00,NNW,340,4.0,9.0,57,0.00,,,0.00,48.000000,,2013-08-31 14:22:00,
2013-08-31 08:32:00,59.0,44.0,-100.00,NNW,340,4.0,9.0,57,0.00,,,0.00,48.000000,,2013-08-31 14:32:00,
2013-08-31 08:42:00,59.0,44.0,-100.00,NNW,340,4.0,9.0,57,0.00,,,0.00,48.000000,,2013-08-31 14:42:00,
2013-08-31 08:52:00,59.0,44.0,-100.00,NNW,340,4.0,9.0,57,0.00,,,0.00,48.000000,,2013-08-31 14:52:00,
2013-08-31 08:55:00,61.0,45.0,-100.00,North,1,4.0,6.0,56,0.00,,,0.00,150.000000,,2013-08-31 14:55:00,
2013-08-31 09:23:00,61.0,45.0,-100.00,North,1,4.0,6.0,56,0.00,,,0.00,150.000000,,2013-08-31 15:23:00,
2013-08-31 09:34:00,61.0,45.0,-100.00,North,1,4.0,6.0,56,0.00,,,0.00,150.000000,,2013-08-31 15:34:00,
2013-08-31 09:44:00,61.0,45.0,-100.00,North,1,4.0,6.0,56,0.00,,,0.00,150.000000,,2013-08-31 15:44:00,
2013-08-31 10:25:00,64.0,45.0,-100.00,WNW,282,4.0,7.0,50,0.00,,,0.00,219.000000,,2013-08-31 16:25:00,
2013-08-31 10:34:00,64.0,45.0,-100.00,WNW,282,4.0,7.0,50,0.00,,,0.00,219.000000,,2013-08-31 16:34:00,
2013-08-31 10:44:00,64.0,45.0,-100.00,WNW,282,4.0,7.0,50,0.00,,,0.00,219.000000,,2013-08-31 16:44:00,
2013-08-31 10:52:00,64.0,45.0,-100.00,WNW,282,4.0,7.0,50,0.00,,,0.00,219.000000,,2013-08-31 16:52:00,
2013-08-31 11:23:00,64.0,46.0,-100.00,West,277,3.0,8.0,52,0.00,,,0.00,218.000000,,2013-08-31 17:23:00,
2013-08-31 11:34:00,64.0,46.0,-100.00,West,277,3.0,8.0,52,0.00,,,0.00,218.000000,,2013-08-31 17:34:00,
2013-08-31 11:42:00,64.0,46.0,-100.00,West,277,3.0,8.0,52,0.00,,,0.00,218.000000,,2013-08-31 17:42:00,
2013-08-31 11:53:00,64.0,46.0,-100.00,West,277,3.0,8.0,52,0.00,,,0.00,218.000000,,2013-08-31 17:53:00,
2013-08-31 12:21:00,64.0,44.0,-100.00,NW,322,3.0,6.0,49,0.00,,,0.00,202.000000,,2013-08-31 18:21:00,
2013-08-31 12:32:00,64.0,44.0,-100.00,NW,322,3.0,6.0,49,0.00,,,0.00,202.000000,,2013-08-31 18:32:00,
2013-08-31 12:42:00,64.0,44.0,-100.00,NW,322,3.0,6.0,49,0.00,,,0.00,202.000000,,2013-08-31 18:42:00,
2013-08-31 12:52:00,64.0,44.0,-100.00,NW,322,3.0,6.0,49,0.00,,,0.00,202.000000,,2013-08-31 18:52:00,
2013-08-31 13:22:00,66.0,46.0,-100.00,SSW,198,2.0,4.0,48,0.00,,,0.00,233.000000,,2013-08-31 19:22:00,
2013-08-31 13:32:00,66.0,46.0,-100.00,SSW,198,2.0,4.0,48,0.00,,,0.00,233.000000,,2013-08-31 19:32:00,
2013-08-31 13:42:00,66.0,46.0,-100.00,SSW,198,2.0,4.0,48,0.00,,,0.00,233.000000,,2013-08-31 19:42:00,
2013-08-31 13:52:00,66.0,46.0,-100.00,SSW,198,2.0,4.0,48,0.00,,,0.00,233.000000,,2013-08-31 19:52:00,
2013-08-31 14:22:00,71.0,45.0,-100.00,WNW,284,6.0,10.0,39,0.00,,,0.00,601.000000,,2013-08-31 20:22:00,
2013-08-31 14:32:00,71.0,45.0,-100.00,WNW,284,6.0,10.0,39,0.00,,,0.00,601.000000,,2013-08-31 20:32:00,
2013-08-31 14:42:00,71.0,45.0,-100.00,WNW,284,6.0,10.0,39,0.00,,,0.00,601.000000,,2013-08-31 20:42:00,
2013-08-31 14:52:00,71.0,45.0,-100.00,WNW,284,6.0,10.0,39,0.00,,,0.00,601.000000,,2013-08-31 20:52:00,
2013-08-31 15:22:00,67.0,43.0,-100.00,WNW,294,5.0,10.0,42,0.00,,,0.00,468.000000,,2013-08-31 21:22:00,
2013-08-31 15:34:00,67.0,43.0,-100.00,WNW,294,5.0,10.0,42,0.00,,,0.00,468.000000,,2013-08-31 21:34:00,
2013-08-31 15:44:00,67.0,43.0,-100.00,WNW,294,5.0,10.0,42,0.00,,,0.00,468.000000,,2013-08-31 21:44:00,
2013-08-31 15:54:00,67.0,43.0,-100.00,WNW,294,5.0,10.0,42,0.00,,,0.00,468.000000,,2013-08-31 21:54:00,
2013-08-31 16:23:00,69.0,44.0,-100.00,SW,228,5.0,10.0,41,0.00,,,0.00,304.000000,,2013-08-31 22:23:00,
2013-08-31 16:32:00,69.0,44.0,-100.00,SW,228,5.0,10.0,41,0.00,,,0.00,304.000000,,2013-08-31 22:32:00,
2013-08-31 16:43:00,69.0,44.0,-100.00,SW,228,5.0,10.0,41,0.00,,,0.00,304.000000,,2013-08-31 22:43:00,
2013-08-31 16:53:00,69.0,44.0,-100.00,SW,228,5.0,10.0,41,0.00,,,0.00,304.000000,,2013-08-31 22:53:00,
2013-08-31 17:22:00,67.0,43.0,-100.00,NE,49,10.0,17.0,42,0.00,,,0.00,419.000000,,2013-08-31 23:22:00,
2013-08-31 17:33:00,67.0,43.0,-100.00,NE,49,10.0,17.0,42,0.00,,,0.00,419.000000,,2013-08-31 23:33:00,
2013-08-31 17:42:00,67.0,43.0,-100.00,NE,49,10.0,17.0,42,0.00,,,0.00,419.000000,,2013-08-31 23:42:00,
2013-08-31 17:52:00,67.0,43.0,-100.00,NE,49,10.0,17.0,42,0.00,,,0.00,419.000000,,2013-08-31 23:52:00,
2013-08-31 18:21:00,64.0,43.0,-100.00,ENE,58,7.0,14.0,46,0.00,,,0.00,283.000000,,2013-09-01 00:21:00,
2013-08-31 18:32:00,64.0,43.0,-100.00,ENE,58,7.0,14.0,46,0.00,,,0.00,283.000000,,2013-09-01 00:32:00,
2013-08-31 18:42:00,64.0,43.0,-100.00,ENE,58,7.0,14.0,46,0.00,,,0.00,283.000000,,2013-09-01 00:42:00,
2013-08-31 18:52:00,64.0,43.0,-100.00,ENE,58,7.0,14.0,46,0.00,,,0.00,283.000000,,2013-09-01 00:52:00,
2013-08-31 19:21:00,59.0,46.0,-100.00,SSW,195,8.0,15.0,62,0.00,,,0.00,28.000000,,2013-09-01 01:21:00,
2013-08-31 19:32:00,59.0,46.0,-100.00,SSW,195,8.0,15.0,62,0.00,,,0.00,28.000000,,2013-09-01 01:32:00,
2013-08-31 19:42:00,59.0,46.0,-100.00,SSW,195,8.0,15.0,62,0.00,,,0.00,28.000000,,2013-09-01 01:42:00,
2013-08-31 19:52:00,59.0,46.0,-100.00,SSW,195,8.0,15.0,62,0.00,,,0.00,28.000000,,2013-09-01 01:52:00,
2013-08-31 20:22:00,56.0,45.0,-100.00,ESE,107,8.0,15.0,66,0.01,,,0.01,4.000000,,2013-09-01 02:22:00,
2013-08-31 20:32:00,56.0,45.0,-100.00,ESE,107,8.0,15.0,66,0.01,,,0.01,4.000000,,2013-09-01 02:32:00,
2013-08-31 20:42:00,56.0,45.0,-100.00,ESE,107,8.0,15.0,66,0.01,,,0.01,4.000000,,2013-09-01 02:42:00,
2013-08-31 20:53:00,56.0,45.0,-100.00,ESE,107,8.0,15.0,66,0.01,,,0.01,4.000000,,2013-09-01 02:53:00,
2013-08-31 21:23:00,53.0,48.0,-100.00,SSE,164,3.0,7.0,84,0.02,,,0.03,0.000000,,2013-09-01 03:23:00,
2013-08-31 21:35:00,53.0,48.0,-100.00,SSE,164,3.0,7.0,84,0.02,,,0.03,0.000000,,2013-09-01 03:35:00,
2013-08-31 21:44:00,53.0,48.0,-100.00,SSE,164,3.0,7.0,84,0.02,,,0.03,0.000000,,2013-09-01 03:44:00,
2013-08-31 21:54:00,53.0,48.0,-100.00,SSE,164,3.0,7.0,84,0.02,,,0.03,0.000000,,2013-09-01 03:54:00,
2013-08-31 22:24:00,54.0,46.0,-100.00,SE,134,13.0,21.0,74,0.02,,,0.05,1.000000,,2013-09-01 04:24:00,
2013-08-31 22:34:00,54.0,46.0,-100.00,SE,134,13.0,21.0,74,0.02,,,0.05,1.000000,,2013-09-01 04:34:00,
2013-08-31 22:43:00,54.0,46.0,-100.00,SE,134,13.0,21.0,74,0.02,,,0.05,1.000000,,2013-09-01 04:43:00,
2013-08-31 22:54:00,54.0,46.0,-100.00,SE,134,13.0,21.0,74,0.02,,,0.05,1.000000,,2013-09-01 04:54:00,
2013-08-31 23:23:00,53.0,45.0,-100.00,South,172,6.0,21.0,75,0.00,,,0.05,1.000000,,2013-09-01 05:23:00,
2013-08-31 23:34:00,53.0,45.0,-100.00,South,172,6.0,21.0,75,0.00,,,0.05,1.000000,,2013-09-01 05:34:00,
2013-08-31 23:43:00,53.0,45.0,-100.00,South,172,6.0,21.0,75,0.00,,,0.05,1.000000,,2013-09-01 05:43:00,
2013-08-31 23:52:00,53.0,45.0,-100.00,South,172,6.0,21.0,75,0.00,,,0.05,1.000000,,2013-09-01 05:52:00,